Weather History for Wheeling, WV

Change the Weather History Date:

Thursday, August 1, 2013

  Actual Average Record
Temperature  
Mean Temperature 73 °F 72 °F  
Max Temperature 80 °F 82 °F 95 °F (2002)
Min Temperature 65 °F 62 °F 49 °F (1952)
Degree Days  
Heating Degree Days 0 0  
Month to date heating degree days 0 0  
Since 1 June heating degree days 23 41  
Since 1 July heating degree days 2 3  
Cooling Degree Days 8    
Month to date cooling degree days 8  
Year to date cooling degree days 480  
Since 1 June cooling degree days 374  
Growing Degree Days 22 (Base 50)    
Moisture  
Dew Point 63 °F    
Average Humidity 76    
Maximum Humidity 100    
Minimum Humidity 52    
Precipitation  
Precipitation 0.03 in 0.09 in 0.47 in (1999)
Month to date precipitation 0.03 0.09  
Sea Level Pressure  
Sea Level Pressure 29.92 in    
Wind  
Wind Speed 6 mph (WSW)    
Max Wind Speed 14 mph    
Max Gust Speed 18 mph    
Visibility 9 miles    
Events Rain    
T = Trace of Precipitation, MM = Missing Value Source: NWS Daily Summary

Daily Weather History Graph

Daily Weather History Graph

Search for Another Location

Airport:

Trip Planner

Search our weather history database for the weather conditions in past years. The results will help you decide how hot, cold, wet, or windy it might be!

Date:

Astronomy

Aug. 01, 2013 Rise Set
Actual Time 6:20 AM EDT 8:36 PM EDT
Civil Twilight 5:50 AM EDT 9:06 PM EDT
Nautical Twilight 5:12 AM EDT 9:43 PM EDT
Astronomical Twilight 4:31 AM EDT 10:24 PM EDT
Moon 1:55 AM EDT (8/1) 4:44 PM EDT (8/1)
Length of Visible Light 15h 16m
Length of Day
14h 15m
Waning Crescent, 23% of the Moon is Illuminated
Aug 1
Waning Crescent
Aug 6
New
Aug 14
First Quarter
Aug 20
Full
Aug 28
Last Quarter

Hourly Weather History & Observations

Time (EDT) Temp. Dew Point Humidity Pressure Visibility Wind Dir Wind Speed Gust Speed Precip Events Conditions
12:18 AM 66.2 °F 62.6 °F 88% 29.98 in 10.0 mi South 4.6 mph - N/A   Overcast
12:29 AM 66.2 °F 62.6 °F 88% 29.98 in 10.0 mi South 5.8 mph - N/A   Overcast
12:40 AM 66.2 °F 62.6 °F 88% 29.97 in 10.0 mi South 4.6 mph - N/A   Overcast
12:48 AM 66.2 °F 62.6 °F 88% 29.97 in 10.0 mi SSE 5.8 mph - N/A   Overcast
12:53 AM 66.0 °F 63.0 °F 90% 29.96 in 10.0 mi South 4.6 mph - N/A   Overcast
1:53 AM 64.9 °F 63.0 °F 93% 29.94 in 10.0 mi South 4.6 mph - N/A   Overcast
2:53 AM 64.9 °F 64.0 °F 97% 29.92 in 10.0 mi SSW 5.8 mph - N/A   Overcast
3:43 AM 66.2 °F 64.4 °F 94% 29.92 in 10.0 mi SSW 4.6 mph - N/A   Overcast
3:53 AM 66.0 °F 64.0 °F 93% 29.91 in 10.0 mi SSW 4.6 mph - N/A   Overcast
4:45 AM 66.2 °F 64.4 °F 94% 29.91 in 8.0 mi SSW 5.8 mph - N/A   Overcast
4:53 AM 66.0 °F 64.0 °F 93% 29.89 in 8.0 mi SSW 5.8 mph - N/A   Overcast
5:25 AM 64.4 °F 64.4 °F 100% 29.90 in 5.0 mi SW 6.9 mph - 0.01 in Rain Light Rain
5:53 AM 64.9 °F 64.9 °F 100% 29.89 in 4.0 mi SSW 5.8 mph - 0.01 in Rain Light Rain
6:53 AM 66.0 °F 64.9 °F 96% 29.90 in 4.0 mi SW 6.9 mph - 0.02 in   Overcast
7:01 AM 66.2 °F 64.4 °F 94% 29.91 in 4.0 mi SW 6.9 mph - N/A   Overcast
7:30 AM 66.2 °F 64.4 °F 94% 29.92 in 4.0 mi SW 5.8 mph - N/A   Overcast
7:53 AM 66.0 °F 64.9 °F 96% 29.92 in 3.0 mi WSW 5.8 mph - N/A   Overcast
8:05 AM 66.2 °F 64.4 °F 94% 29.93 in 4.0 mi WSW 6.9 mph - N/A   Overcast
8:53 AM 66.9 °F 64.9 °F 93% 29.93 in 5.0 mi West 5.8 mph - N/A   Overcast
9:53 AM 69.1 °F 66.9 °F 93% 29.92 in 7.0 mi West 5.8 mph - 0.00 in   Mostly Cloudy
10:53 AM 71.1 °F 66.0 °F 84% 29.93 in 10.0 mi Variable 5.8 mph - N/A   Mostly Cloudy
11:03 AM 71.6 °F 64.4 °F 78% 29.94 in 10.0 mi West 6.9 mph - N/A   Mostly Cloudy
11:12 AM 71.6 °F 64.4 °F 78% 29.94 in 10.0 mi Variable 6.9 mph - N/A   Overcast
11:21 AM 71.6 °F 64.4 °F 78% 29.94 in 10.0 mi WNW 9.2 mph - N/A   Mostly Cloudy
11:36 AM 73.4 °F 64.4 °F 73% 29.94 in 10.0 mi West 8.1 mph - N/A   Scattered Clouds
11:53 AM 73.0 °F 64.0 °F 73% 29.92 in 10.0 mi WNW 9.2 mph - N/A   Mostly Cloudy
12:53 PM 75.9 °F 63.0 °F 64% 29.92 in 10.0 mi NW 8.1 mph - N/A   Scattered Clouds
1:53 PM 75.9 °F 62.1 °F 62% 29.91 in 10.0 mi WNW 10.4 mph 16.1 mph N/A   Partly Cloudy
2:53 PM 78.1 °F 62.1 °F 58% 29.90 in 10.0 mi West 11.5 mph - N/A   Scattered Clouds
3:53 PM 79.0 °F 60.1 °F 52% 29.89 in 10.0 mi WNW 8.1 mph 17.3 mph N/A   Partly Cloudy
4:53 PM 79.0 °F 59.0 °F 50% 29.88 in 10.0 mi WNW 10.4 mph - N/A   Partly Cloudy
5:53 PM 77.0 °F 59.0 °F 54% 29.90 in 10.0 mi WNW 8.1 mph - N/A   Mostly Cloudy
6:53 PM 77.0 °F 59.0 °F 54% 29.91 in 10.0 mi WNW 8.1 mph - N/A   Clear
7:53 PM 73.9 °F 59.0 °F 59% 29.91 in 10.0 mi West 5.8 mph - N/A   Scattered Clouds
8:53 PM 72.0 °F 59.0 °F 64% 29.92 in 10.0 mi WNW 3.5 mph - N/A   Mostly Cloudy
9:53 PM 70.0 °F 57.9 °F 65% 29.93 in 10.0 mi West 4.6 mph - N/A   Clear
10:53 PM 69.1 °F 59.0 °F 70% 29.94 in 10.0 mi Calm Calm - N/A   Clear
11:53 PM 66.9 °F 60.1 °F 79% 29.95 in 10.0 mi Calm Calm - N/A   Mostly Cloudy